Regional Weather Roundup
Issued by NWS Goodland, KS

Home | Current Version | Previous Version | Text Only | Print | Product List | Glossary Off
Versions: 1 2 3 4 5 6 7 8 9 10 11 12 13 14 15 16 17 18 19 20 21 22 23 24 25 26 27 28 29 30 31 32 33 34 35 36 37 38 39 40 41 42 43 44 45 46 47 48 49 50

000
ASUS43 KGLD 290208
RWRGLD

GOODLAND FORECAST AREA HOURLY WEATHER ROUNDUP
NATIONAL WEATHER SERVICE GOODLAND KS
800 PM MDT TUE MAR 28 2017

...OFFICIAL OBSERVATIONS...

CITY           SKY/WX    TMP DP  RH WIND       PRES   REMARKS
GOODLAND KS    CLOUDY    41  41 100 E16       29.95R FOG
HILL CITY KS   CLOUDY    46  45  96 NE13      29.99R FOG
IMPERIAL NEB   LGT RAIN  43  40  89 CALM      30.02R
MCCOOK NEB     LGT RAIN  45  44  97 NE20      30.01R FOG
AKRON CO       LGT RAIN  38  36  92 E20       29.97R
BURLINGTON CO  CLOUDY    40  39  97 E13       29.96R
LIMON CO       CLOUDY    39  39 100 SE8       29.94R
$$

...UNOFFICIAL OBSERVATIONS...

CITY           SKY/WX    TMP DP  RH WIND       PRES   REMARKS
NORTON KS      CLOUDY    43  39  87 NE12      30.00R
SHARON SPRINGS   N/A     41  40  96 NE18        N/A
TRENTON NEB      N/A     43  32  65 E12         N/A
KIT CARSON CO    N/A     39  36  90 MISG        N/A
YUMA CO        DRIZZLE   37  36  93 E9        30.00R
$$



USA.gov is the U.S. government's official web portal to all federal, state and local government web resources and services.